This demonstration page uses our WeatherBlox Daily Observations layout. Learn more.

Left ArrowRight Arrow

39.12711, -84.51439

Hourly Observations for October 25, 2018

Temp ( °F °C ) Dew Point ( °F °C ) Humidity (%) Winds ( mph kmh ) Pressure ( in mb ) Visibility ( mi km ) Precip ( " mm )
12:53 am 00:53 Clear 35 1.7 35 1.7 100 100 N N/A 30.31 1026 10 16 N/A
1:53 am 01:53 Clear 34 1.1 34 1.1 100 100 N N/A 30.30 1026 10 16 N/A
2:53 am 02:53 Clear 35 1.7 34 1.1 96 96 N N/A 30.29 1026 10 16 N/A
3:53 am 03:53 Clear 34 1.1 34 1.1 100 100 N N/A 30.28 1025 10 16 N/A
4:53 am 04:53 Clear 34 1.1 34 1.1 100 100 N N/A 30.27 1025 10 16 N/A
5:53 am 05:53 Clear 34 1.1 34 1.1 100 100 N N/A 30.26 1025 10 16 N/A
6:53 am 06:53 Clear 34 1.1 34 1.1 100 100 N N/A 30.26 1025 10 16 N/A
7:53 am 07:53 Clear 35 1.7 34 1.1 96 96 N N/A 30.25 1025 10 16 N/A
8:53 am 08:53 Sunny 36 2.2 35 1.7 97 97 N 3 6 30.25 1025 10 16 N/A
9:53 am 09:53 Sunny 40 4.4 37 2.8 89 89 NNE 3 6 30.24 1024 10 16 N/A
10:53 am 10:53 Sunny 44 6.7 39 3.9 83 83 N N/A 30.24 1024 10 16 N/A
11:53 am 11:53 Sunny 46 7.8 40 4.4 79 79 ENE 3 6 30.21 1023 10 16 N/A
12:53 pm 12:53 Sunny 52 11.1 37 2.8 57 57 ESE 8 13 30.19 1023 10 16 N/A
1:53 pm 13:53 Sunny 56 13.3 38 3.3 51 51 VRB 5 7 30.16 1021 10 16 N/A
2:53 pm 14:53 Sunny 56 13.3 34 1.1 44 44 SE 3 6 30.12 1020 10 16 N/A
3:53 pm 15:53 Sunny 56 13.3 35 1.7 46 46 ESE 5 7 30.10 1019 10 16 N/A
4:53 pm 16:53 Sunny 55 12.8 35 1.7 47 47 SE 7 11 30.07 1018 10 16 N/A
5:53 pm 17:53 Sunny 54 12.2 37 2.8 53 53 ESE 3 6 30.06 1018 10 16 N/A
6:53 pm 18:53 Clear 49 9.4 40 4.4 71 71 ESE 3 6 30.06 1018 10 16 N/A
7:53 pm 19:53 Clear 47 8.3 43 6.1 86 86 NE 5 7 30.05 1018 10 16 N/A
8:53 pm 20:53 Clear 48 8.9 41 5 77 77 NNE 3 6 30.04 1017 10 16 N/A
9:53 pm 21:53 Clear 45 7.2 43 6.1 93 93 N N/A 30.04 1017 10 16 N/A
10:53 pm 22:53 Cloudy 46 7.8 44 6.7 93 93 NE 3 6 30.02 1017 10 16 N/A
11:53 pm 23:53 Mostly Cloudy 45 7.2 43 6.1 93 93 N N/A 30.02 1017 10 16 N/A

Powered by AerisWeather